DELTA 1 DEB, 3051

Orbit data source: Space-Track

DELTA 1 DEB, 3051 is space debris in SSO originally from a launch on Fri, 10 Nov 1967 UTC launched from the Air Force Western Test Range (AFWTR). Debris objects in space refer to the collection of defunct objects orbiting the Earth. Examples of debris include non-operational satellites, rocket bodies, and fragments generated from explosions, collisions, or faulty payload assembly.

Loading next visibility...
Identifier
3051, 1967-114C
Orbit
SSO
Country
Flag of USUS
Related business
Manufacturer
Unknown
Mission
Spacecraft
Bus & Motor
Unknown
Mass
Unknown
Launch date (UTC)
1967-11-10 (59 years ago)
Launch vehicle
Unknown
Launch site
Air Force Western Test Range (AFWTR)
Object type
Payload
Rocket body
Debris
Shape & HBR
Unknown shape, 0.1 m
Radar Cross Section
Medium (>0.1 m² and <1 m²)

Expand to show TLE details & history
Last TLE update: 5 days ago

TLE from 5 days ago
0 DELTA 1 DEB
1 03051U 67114C   26158.70217545 -.00000004  00000-0  20767-3 0  9991
2 03051 101.1619 132.1373 0089875 137.3506  45.4621 12.62291725698060
Epoch: 2026-06-07T16:51Z
TLE epoch observation values (Epoch: 2026-06-07T16:51:07.958Z)
Latitude
-3.61179°
Longitude
162.54447°
Altitude
1,367.853 km
Speed
7.197 km/s
True Right ascension
20h 45m 42s
True Declination
-3° 35' 31"
Sunlit
Object was in daylight at epoch
Visualization orbit readout
Latitude
Unknown
Longitude
Unknown
Altitude
Unknown
Speed
Unknown
Apparent Right ascension
Unknown
Apparent Declination
Unknown
Sunlit
N/A
Visualization observer readout
Local Sidereal Time
13:18:48
Azimuth
Unknown
Elevation
Unknown
Doppler factor
Unknown
Orbital elements
Apogee altitude
1,481.001 km
Perigee altitude
1,340.991 km
Semi-major axis
7,789.133 km
Eccentricity
0.00899
Inclination
101.1619°
RAAN
132.1373°
Arg. of periapsis
137.3506°
True anomaly
46.202°
Mean anomaly
45.4621°
Eccentric anomaly
45.83147°
Mean motion
3.15725 °/min
Orbital period
114.02 mins
BSTAR
0.00020767
Loading maneuver chart data...
Computing Atmospheric mass density...
Loading historical data...
Loading historical data...
Loading historical data...
Loading historical data...
Loading historical data...
Loading historical data...
Loading historical data...
Other satellites on launch #114 in the year 1967 (1967-11-10 UTC)

Documentation

Showing up to 5 results
|